Time,TemperatureF,DewpointF,PressureIn,WindDirection,WindDirectionDegrees,WindSpeedMPH,WindSpeedGustMPH,Humidity,HourlyPrecipIn,Conditions,Clouds,dailyrainin,SoftwareType,DateUTC
2013-08-20 00:12:00,67.0,64.0,30.02,West,261,0.0,-999.0,90,-99.99,,,-99.99,,2013-08-20 05:12:00,
2013-08-20 00:22:00,67.0,64.0,30.02,West,261,0.0,-999.0,90,-99.99,,,-99.99,,2013-08-20 05:22:00,
2013-08-20 00:42:00,67.0,64.0,30.02,West,261,0.0,-999.0,91,-99.99,,,-99.99,,2013-08-20 05:42:00,
2013-08-20 00:52:00,67.0,64.0,30.02,West,261,0.0,-999.0,91,-99.99,,,-99.99,,2013-08-20 05:52:00,
2013-08-20 01:11:00,67.0,64.0,30.02,West,261,0.0,-999.0,91,-99.99,,,-99.99,,2013-08-20 06:11:00,
2013-08-20 01:21:00,66.0,63.0,30.02,West,261,0.0,-999.0,91,-99.99,,,-99.99,,2013-08-20 06:21:00,
2013-08-20 01:42:00,66.0,64.0,30.02,West,261,0.0,-999.0,92,-99.99,,,-99.99,,2013-08-20 06:42:00,
2013-08-20 01:52:00,66.0,64.0,30.01,West,261,0.0,-999.0,93,-99.99,,,-99.99,,2013-08-20 06:52:00,
2013-08-20 02:11:00,66.0,64.0,30.01,West,261,0.0,-999.0,93,-99.99,,,-99.99,,2013-08-20 07:11:00,
2013-08-20 02:22:00,65.0,63.0,30.01,West,261,0.0,-999.0,93,-99.99,,,-99.99,,2013-08-20 07:22:00,
2013-08-20 02:42:00,65.0,63.0,30.01,West,261,0.0,-999.0,94,-99.99,,,-99.99,,2013-08-20 07:42:00,
2013-08-20 02:52:00,65.0,64.0,30.01,West,261,0.0,-999.0,95,-99.99,,,-99.99,,2013-08-20 07:52:00,
2013-08-20 03:11:00,65.0,63.0,30.01,West,261,0.0,-999.0,94,-99.99,,,-99.99,,2013-08-20 08:11:00,
2013-08-20 03:21:00,65.0,64.0,30.01,West,261,0.0,-999.0,95,-99.99,,,-99.99,,2013-08-20 08:21:00,
2013-08-20 03:52:00,64.0,63.0,30.01,West,261,0.0,-999.0,96,-99.99,,,-99.99,,2013-08-20 08:52:00,
2013-08-20 04:11:00,64.0,63.0,30.01,West,261,0.0,-999.0,96,-99.99,,,-99.99,,2013-08-20 09:11:00,
2013-08-20 04:21:00,64.0,63.0,30.01,West,261,0.0,-999.0,96,-99.99,,,-99.99,,2013-08-20 09:21:00,
2013-08-20 04:42:00,64.0,63.0,30.02,West,261,0.0,-999.0,97,-99.99,,,-99.99,,2013-08-20 09:42:00,
2013-08-20 04:53:00,64.0,63.0,30.02,West,261,0.0,-999.0,97,-99.99,,,-99.99,,2013-08-20 09:53:00,
2013-08-20 05:12:00,64.0,63.0,30.02,West,261,0.0,-999.0,96,-99.99,,,-99.99,,2013-08-20 10:12:00,
2013-08-20 05:22:00,63.0,62.0,30.03,West,261,0.0,-999.0,96,-99.99,,,-99.99,,2013-08-20 10:22:00,
2013-08-20 05:42:00,63.0,62.0,30.03,West,261,0.0,-999.0,97,-99.99,,,-99.99,,2013-08-20 10:42:00,
2013-08-20 05:52:00,63.0,62.0,30.03,West,261,0.0,-999.0,97,-99.99,,,-99.99,,2013-08-20 10:52:00,
2013-08-20 06:11:00,63.0,62.0,30.04,West,261,0.0,-999.0,97,-99.99,,,-99.99,,2013-08-20 11:11:00,
2013-08-20 06:22:00,63.0,62.0,30.04,West,261,0.0,-999.0,97,-99.99,,,-99.99,,2013-08-20 11:22:00,
2013-08-20 06:42:00,63.0,62.0,30.04,West,261,0.0,-999.0,97,-99.99,,,-99.99,,2013-08-20 11:42:00,
2013-08-20 06:52:00,63.0,62.0,30.05,West,261,0.0,-999.0,97,-99.99,,,-99.99,,2013-08-20 11:52:00,
2013-08-20 07:12:00,63.0,62.0,30.05,West,261,0.0,-999.0,97,-99.99,,,-99.99,,2013-08-20 12:12:00,
2013-08-20 07:21:00,63.0,62.0,30.05,West,261,0.0,-999.0,97,-99.99,,,-99.99,,2013-08-20 12:21:00,
2013-08-20 07:42:00,64.0,63.0,30.05,West,261,0.0,-999.0,97,-99.99,,,-99.99,,2013-08-20 12:42:00,
2013-08-20 07:52:00,65.0,64.0,30.06,West,261,0.0,-999.0,97,-99.99,,,-99.99,,2013-08-20 12:52:00,
2013-08-20 08:11:00,66.0,65.0,30.06,WSW,254,0.0,-999.0,95,-99.99,,,-99.99,,2013-08-20 13:11:00,
2013-08-20 08:22:00,67.0,65.0,30.06,WSW,240,0.0,-999.0,93,-99.99,,,-99.99,,2013-08-20 13:22:00,
2013-08-20 08:42:00,69.0,66.0,30.07,WSW,240,0.0,-999.0,89,-99.99,,,-99.99,,2013-08-20 13:42:00,
2013-08-20 08:52:00,71.0,67.0,30.07,WSW,237,0.0,-999.0,86,-99.99,,,-99.99,,2013-08-20 13:52:00,
2013-08-20 09:11:00,73.0,68.0,30.07,SW,235,0.0,-999.0,84,-99.99,,,-99.99,,2013-08-20 14:11:00,
2013-08-20 09:21:00,74.0,68.0,30.07,SW,234,0.0,-999.0,81,-99.99,,,-99.99,,2013-08-20 14:21:00,
2013-08-20 09:42:00,75.0,68.0,30.07,SW,225,0.0,-999.0,80,-99.99,,,-99.99,,2013-08-20 14:42:00,
2013-08-20 09:52:00,75.0,68.0,30.07,SW,225,0.0,-999.0,80,-99.99,,,-99.99,,2013-08-20 14:52:00,
2013-08-20 10:11:00,76.0,69.0,30.07,SW,220,1.0,-999.0,78,-99.99,,,-99.99,,2013-08-20 15:11:00,
2013-08-20 10:22:00,77.0,70.0,30.07,East,92,1.0,-999.0,78,-99.99,,,-99.99,,2013-08-20 15:22:00,
2013-08-20 10:43:00,78.0,69.0,30.07,SSW,195,1.0,-999.0,74,-99.99,,,-99.99,,2013-08-20 15:43:00,
2013-08-20 10:53:00,79.0,70.0,30.07,SSE,161,1.0,-999.0,74,-99.99,,,-99.99,,2013-08-20 15:53:00,
2013-08-20 11:15:00,80.0,71.0,30.07,SSW,199,2.0,-999.0,73,-99.99,,,-99.99,,2013-08-20 16:15:00,
2013-08-20 11:30:00,-999.0,-99.9,30.06,SE,126,1.0,-999.0,69,-99.99,,,-99.99,,2013-08-20 16:30:00,
2013-08-20 11:42:00,82.0,69.0,30.06,SSE,153,1.0,-999.0,66,-99.99,,,-99.99,,2013-08-20 16:42:00,
2013-08-20 11:52:00,83.0,70.0,30.06,SE,138,1.0,-999.0,64,-99.99,,,-99.99,,2013-08-20 16:52:00,
2013-08-20 12:12:00,83.0,70.0,30.05,SSE,150,2.0,-999.0,65,-99.99,,,-99.99,,2013-08-20 17:12:00,
2013-08-20 12:24:00,84.0,70.0,30.05,SSE,161,1.0,-999.0,63,-99.99,,,-99.99,,2013-08-20 17:24:00,
2013-08-20 12:43:00,83.0,70.0,30.05,South,174,1.0,-999.0,64,-99.99,,,-99.99,,2013-08-20 17:43:00,
2013-08-20 12:52:00,82.0,69.0,30.04,SSE,149,1.0,-999.0,65,-99.99,,,-99.99,,2013-08-20 17:52:00,
2013-08-20 13:12:00,81.0,68.0,30.04,SSW,209,0.0,-999.0,65,-99.99,,,-99.99,,2013-08-20 18:12:00,
2013-08-20 13:22:00,82.0,69.0,30.03,SE,134,1.0,-999.0,64,-99.99,,,-99.99,,2013-08-20 18:22:00,
2013-08-20 13:52:00,84.0,69.0,30.03,SW,229,1.0,-999.0,61,-99.99,,,-99.99,,2013-08-20 18:52:00,
2013-08-20 14:11:00,83.0,69.0,30.03,SSW,202,1.0,-999.0,63,-99.99,,,-99.99,,2013-08-20 19:11:00,
2013-08-20 14:21:00,84.0,69.0,30.03,South,171,2.0,-999.0,60,-99.99,,,-99.99,,2013-08-20 19:21:00,
2013-08-20 14:32:00,84.0,69.0,30.03,South,171,2.0,-999.0,60,-99.99,,,-99.99,,2013-08-20 19:32:00,
2013-08-20 14:42:00,84.0,69.0,30.03,South,171,2.0,-999.0,60,-99.99,,,-99.99,,2013-08-20 19:42:00,
2013-08-20 14:52:00,84.0,68.0,30.02,South,178,1.0,-999.0,58,-99.99,,,-99.99,,2013-08-20 19:52:00,
2013-08-20 15:12:00,85.0,69.0,30.02,SE,146,1.0,-999.0,59,-99.99,,,-99.99,,2013-08-20 20:12:00,
2013-08-20 15:22:00,85.0,68.0,30.01,SW,227,1.0,-999.0,57,-99.99,,,-99.99,,2013-08-20 20:22:00,
2013-08-20 15:42:00,85.0,66.0,30.01,SSW,206,1.0,-999.0,54,-99.99,,,-99.99,,2013-08-20 20:42:00,
2013-08-20 15:52:00,85.0,68.0,30.01,SSE,161,1.0,-999.0,56,-99.99,,,-99.99,,2013-08-20 20:52:00,
2013-08-20 16:11:00,86.0,67.0,30.00,SE,140,1.0,-999.0,54,-99.99,,,-99.99,,2013-08-20 21:11:00,
2013-08-20 16:22:00,86.0,68.0,30.00,SSE,157,1.0,-999.0,56,-99.99,,,-99.99,,2013-08-20 21:22:00,
2013-08-20 16:44:00,86.0,67.0,30.00,South,189,0.0,-999.0,53,-99.99,,,-99.99,,2013-08-20 21:44:00,
2013-08-20 16:55:00,85.0,67.0,30.00,SE,128,1.0,-999.0,55,-99.99,,,-99.99,,2013-08-20 21:55:00,
2013-08-20 17:14:00,85.0,67.0,30.00,SE,131,1.0,-999.0,55,-99.99,,,-99.99,,2013-08-20 22:14:00,
2013-08-20 17:24:00,85.0,67.0,29.99,SE,136,1.0,-999.0,55,-99.99,,,-99.99,,2013-08-20 22:24:00,
2013-08-20 17:42:00,85.0,67.0,29.99,South,182,0.0,-999.0,55,-99.99,,,-99.99,,2013-08-20 22:42:00,
2013-08-20 17:53:00,85.0,68.0,29.99,SSE,151,0.0,-999.0,56,-99.99,,,-99.99,,2013-08-20 22:53:00,
2013-08-20 18:12:00,84.0,67.0,29.99,SSW,205,1.0,-999.0,57,-99.99,,,-99.99,,2013-08-20 23:12:00,
2013-08-20 18:22:00,83.0,67.0,29.99,SE,146,0.0,-999.0,59,-99.99,,,-99.99,,2013-08-20 23:22:00,
2013-08-20 18:42:00,82.0,67.0,29.99,SSE,152,0.0,-999.0,60,-99.99,,,-99.99,,2013-08-20 23:42:00,
2013-08-20 18:52:00,82.0,68.0,29.98,SSE,152,0.0,-999.0,62,-99.99,,,-99.99,,2013-08-20 23:52:00,
2013-08-20 19:12:00,81.0,69.0,29.98,SSE,152,0.0,-999.0,66,-99.99,,,-99.99,,2013-08-21 00:12:00,
2013-08-20 19:22:00,81.0,69.0,29.98,SSE,152,0.0,-999.0,68,-99.99,,,-99.99,,2013-08-21 00:22:00,
2013-08-20 19:42:00,81.0,70.0,29.98,SSE,152,0.0,-999.0,69,-99.99,,,-99.99,,2013-08-21 00:42:00,
2013-08-20 19:52:00,80.0,70.0,29.98,SSE,152,0.0,-999.0,71,-99.99,,,-99.99,,2013-08-21 00:52:00,
2013-08-20 20:11:00,78.0,68.0,29.99,SSE,152,0.0,-999.0,72,-99.99,,,-99.99,,2013-08-21 01:11:00,
2013-08-20 20:22:00,77.0,68.0,29.99,SSE,152,0.0,-999.0,75,-99.99,,,-99.99,,2013-08-21 01:22:00,
2013-08-20 20:42:00,75.0,67.0,29.99,SSE,152,0.0,-999.0,77,-99.99,,,-99.99,,2013-08-21 01:42:00,
2013-08-20 20:52:00,74.0,67.0,29.99,SSE,152,0.0,-999.0,79,-99.99,,,-99.99,,2013-08-21 01:52:00,
2013-08-20 21:12:00,73.0,66.0,29.99,SSE,152,0.0,-999.0,79,-99.99,,,-99.99,,2013-08-21 02:12:00,
2013-08-20 21:22:00,73.0,67.0,30.00,SSE,152,0.0,-999.0,81,-99.99,,,-99.99,,2013-08-21 02:22:00,
2013-08-20 21:42:00,72.0,66.0,30.00,SSE,152,0.0,-999.0,82,-99.99,,,-99.99,,2013-08-21 02:42:00,
2013-08-20 21:52:00,72.0,67.0,30.00,SSE,152,0.0,-999.0,84,-99.99,,,-99.99,,2013-08-21 02:52:00,
2013-08-20 22:12:00,71.0,66.0,30.01,SSE,152,0.0,-999.0,84,-99.99,,,-99.99,,2013-08-21 03:12:00,
2013-08-20 22:23:00,70.0,65.0,30.01,SSE,152,0.0,-999.0,85,-99.99,,,-99.99,,2013-08-21 03:23:00,
2013-08-20 22:44:00,70.0,66.0,30.01,SSE,152,0.0,-999.0,87,-99.99,,,-99.99,,2013-08-21 03:44:00,
2013-08-20 22:55:00,70.0,66.0,30.01,SSE,152,0.0,-999.0,87,-99.99,,,-99.99,,2013-08-21 03:55:00,
2013-08-20 23:14:00,70.0,66.0,30.01,SSE,152,0.0,-999.0,87,-99.99,,,-99.99,,2013-08-21 04:14:00,
2013-08-20 23:24:00,70.0,66.0,30.01,SSE,152,0.0,-999.0,87,-99.99,,,-99.99,,2013-08-21 04:24:00,
2013-08-20 23:44:00,70.0,66.0,30.01,SSE,152,0.0,-999.0,88,-99.99,,,-99.99,,2013-08-21 04:44:00,
2013-08-20 23:54:00,69.0,66.0,30.02,SSE,152,0.0,-999.0,89,-99.99,,,-99.99,,2013-08-21 04:54:00,